Location: Jihlava
(49.4000°N, 15.5830°E)
Time: 11:07:37
(UTC+01:00)

ISS - Pass Details

Date: 29 September 2023
Orbit: 416 x 417 km, 51.6° (Epoch: 01 December)

Event Time Altitude Azimuth Distance (km) Brightness Sun altitude
Rises 20:36:51 0° 287° (WNW) 2,367 1.7 -19.3°
Reaches altitude 10° 20:39:08 10° 275° (W) 1,496 0.2 -19.7°
Maximum altitude 20:42:01 27° 216° (SW) 840 -2.1 -20.1°
Enters shadow 20:42:27 26° 201° (SSW) 860 -2.2 -20.2°
